Location: Arrington
(35.8681°N, 86.7092°W)
Time: 16:20:56
(UTC+00:00)

STARLINK 1059 - Pass Details

Date: 23 November 2019
Orbit: 348 x 351 km, 53.0° (Epoch: 09 December)

Event Time Altitude Azimuth Distance (km) Brightness Sun altitude
Exits shadow 11:30:34 15° 243° (WSW) 1,048 4.6 -12.3°
Maximum altitude 11:32:46 53° 318° (NW) 437 2.8 -11.8°
Drops below altitude 10° 11:35:38 10° 37° (NE) 1,309 5.8 -11.3°
Sets 11:37:40 0° 42° (NE) 2,154 7.0 -10.9°
